Weather History for Atlantic, IA

Change the Weather History Date:

Saturday, February 9, 2013

  Actual Average Record
Temperature  
Mean Temperature 36 °F -  
Max Temperature 44 °F 33 °F 59 °F (2009)
Min Temperature 28 °F 16 °F -11 °F (2014)
Degree Days  
Heating Degree Days 29    
Moisture  
Dew Point 31 °F    
Average Humidity 84    
Maximum Humidity 100    
Minimum Humidity 66    
Precipitation  
Precipitation 0.00 in - - ()
Sea Level Pressure  
Sea Level Pressure 29.98 in    
Wind  
Wind Speed 13 mph (SSE)    
Max Wind Speed 18 mph    
Max Gust Speed 26 mph    
Visibility 8 miles    
Events Rain    
Averages and records for this station are not official NWS values.
T = Trace of Precipitation, MM = Missing Value Source: NWS Daily Summary

Daily Weather History Graph

Daily Weather History Graph

Search for Another Location

Airport:

Trip Planner

Search our weather history database for the weather conditions in past years. The results will help you decide how hot, cold, wet, or windy it might be!

Date:

Astronomy

Feb. 09, 2013 Rise Set
Actual Time 7:22 AM CST 5:46 PM CST
Civil Twilight 6:53 AM CST 6:15 PM CST
Nautical Twilight 6:21 AM CST 6:48 PM CST
Astronomical Twilight 5:48 AM CST 7:20 PM CST
Moon 6:34 AM CST (2/9) 5:31 PM CST (2/9)
Length of Visible Light 11h 21m
Length of Day
10h 24m
Waning Crescent, 0% of the Moon is Illuminated
Feb 9
Waning Crescent
Feb 10
New
Feb 17
First Quarter
Feb 25
Full
Mar 4
Last Quarter

Hourly Weather History & Observations

Time (CST) Temp. Windchill Dew Point Humidity Pressure Visibility Wind Dir Wind Speed Gust Speed Precip Events Conditions
12:15 AM 28.4 °F 18.5 °F 26.6 °F 93% 30.20 in 6.0 mi SSE 11.5 mph - N/A   Overcast
12:35 AM 28.4 °F 17.5 °F 26.6 °F 93% 30.19 in 6.0 mi SSE 13.8 mph - N/A   Overcast
12:55 AM 28.4 °F 17.0 °F 26.6 °F 93% 30.20 in 6.0 mi South 15.0 mph - N/A   Overcast
1:15 AM 28.4 °F 18.5 °F 26.6 °F 93% 30.19 in 6.0 mi SSE 11.5 mph 19.6 mph N/A   Overcast
1:35 AM 28.4 °F 17.0 °F 26.6 °F 93% 30.18 in 6.0 mi SSE 15.0 mph - N/A   Overcast
1:55 AM 28.4 °F 18.5 °F 26.6 °F 93% 30.19 in 7.0 mi South 11.5 mph 20.7 mph N/A   Overcast
2:15 AM 28.4 °F 18.0 °F 26.6 °F 93% 30.18 in 8.0 mi South 12.7 mph - N/A   Overcast
2:55 AM 28.4 °F 18.0 °F 26.6 °F 93% 30.17 in 8.0 mi SSE 12.7 mph 18.4 mph N/A   Overcast
3:15 AM 28.4 °F 18.5 °F 26.6 °F 93% 30.16 in 8.0 mi SSE 11.5 mph 19.6 mph N/A   Overcast
3:35 AM 28.4 °F 17.5 °F 26.6 °F 93% 30.14 in 7.0 mi SSE 13.8 mph 20.7 mph N/A   Overcast
3:55 AM 28.4 °F 18.0 °F 26.6 °F 93% 30.14 in 7.0 mi SSE 12.7 mph 18.4 mph N/A   Overcast
4:15 AM 28.4 °F 19.1 °F 26.6 °F 93% 30.13 in 6.0 mi SSE 10.4 mph 19.6 mph N/A   Overcast
4:35 AM 28.4 °F 18.5 °F 26.6 °F 93% 30.13 in 6.0 mi SSE 11.5 mph - N/A   Overcast
4:55 AM 28.4 °F 17.5 °F 26.6 °F 93% 30.12 in 6.0 mi SSE 13.8 mph - N/A   Overcast
5:15 AM 28.4 °F 18.5 °F 28.4 °F 100% 30.11 in 6.0 mi SSE 11.5 mph - N/A   Overcast
5:35 AM 28.4 °F 19.1 °F 28.4 °F 100% 30.11 in 6.0 mi SSE 10.4 mph - N/A   Overcast
5:55 AM 30.2 °F 21.3 °F 28.4 °F 93% 30.11 in 6.0 mi SSE 10.4 mph - N/A   Overcast
6:15 AM 30.2 °F 20.8 °F 28.4 °F 93% 30.10 in 5.0 mi SSE 11.5 mph 21.9 mph N/A   Overcast
6:35 AM 30.2 °F 18.9 °F 28.4 °F 93% 30.09 in 5.0 mi SSE 16.1 mph - N/A   Overcast
6:55 AM 30.2 °F 20.2 °F 28.4 °F 93% 30.09 in 5.0 mi SSE 12.7 mph - N/A   Overcast
7:15 AM 30.2 °F 19.8 °F 28.4 °F 93% 30.08 in 5.0 mi SSE 13.8 mph 20.7 mph N/A   Overcast
7:35 AM 30.2 °F 19.3 °F 28.4 °F 93% 30.08 in 4.0 mi SSE 15.0 mph 23.0 mph N/A   Overcast
7:55 AM 30.2 °F 20.2 °F 30.2 °F 100% 30.09 in 4.0 mi SSE 12.7 mph 19.6 mph N/A   Overcast
8:15 AM 30.2 °F 19.3 °F 30.2 °F 100% 30.08 in 5.0 mi SSE 15.0 mph 21.9 mph N/A   Overcast
8:35 AM 32.0 °F 22.5 °F 30.2 °F 93% 30.08 in 5.0 mi SSE 12.7 mph 21.9 mph N/A   Overcast
8:55 AM 32.0 °F 21.2 °F 30.2 °F 93% 30.07 in 5.0 mi South 16.1 mph 23.0 mph N/A   Overcast
9:15 AM 32.0 °F 22.5 °F 30.2 °F 93% 30.07 in 6.0 mi SSE 12.7 mph 21.9 mph N/A   Overcast
9:35 AM 32.0 °F 20.8 °F 30.2 °F 93% 30.07 in 6.0 mi SSE 17.3 mph - N/A   Overcast
9:55 AM 33.8 °F 22.8 °F 30.2 °F 87% 30.06 in 7.0 mi South 18.4 mph 26.5 mph N/A   Overcast
10:15 AM 33.8 °F 24.3 °F 32.0 °F 93% 30.06 in 8.0 mi South 13.8 mph 24.2 mph N/A   Mostly Cloudy
10:35 AM 35.6 °F 26.2 °F 32.0 °F 87% 30.06 in 9.0 mi South 15.0 mph 23.0 mph N/A   Mostly Cloudy
10:55 AM 37.4 °F 27.8 °F 32.0 °F 81% 30.05 in 9.0 mi South 17.3 mph - N/A   Mostly Cloudy
11:15 AM 37.4 °F 27.5 °F 32.0 °F 81% 30.04 in 9.0 mi SSE 18.4 mph 25.3 mph N/A   Mostly Cloudy
11:35 AM 39.2 °F 30.2 °F 32.0 °F 75% 30.03 in 9.0 mi South 17.3 mph 24.2 mph N/A   Mostly Cloudy
11:55 AM 39.2 °F 29.8 °F 32.0 °F 75% 30.02 in 10.0 mi South 18.4 mph - N/A   Partly Cloudy
12:15 PM 41.0 °F 32.8 °F 32.0 °F 70% 30.00 in 10.0 mi South 16.1 mph 24.2 mph N/A   Clear
12:35 PM 41.0 °F 32.2 °F 33.8 °F 76% 29.99 in 10.0 mi South 18.4 mph 25.3 mph N/A   Partly Cloudy
12:55 PM 42.8 °F 34.5 °F 33.8 °F 70% 29.97 in 10.0 mi South 18.4 mph 26.5 mph N/A   Clear
1:15 PM 42.8 °F 35.1 °F 33.8 °F 70% 29.96 in 10.0 mi SSE 16.1 mph 24.2 mph N/A   Clear
1:35 PM 42.8 °F 35.8 °F 33.8 °F 70% 29.95 in 10.0 mi SSE 13.8 mph 21.9 mph N/A   Clear
1:55 PM 44.6 °F 37.8 °F 33.8 °F 66% 29.92 in 10.0 mi SSE 15.0 mph 24.2 mph N/A   Clear
2:15 PM 44.6 °F 37.8 °F 33.8 °F 66% 29.91 in - SSE 15.0 mph 23.0 mph N/A   Clear
2:35 PM 44.6 °F 37.8 °F 33.8 °F 66% 29.90 in 10.0 mi SSE 15.0 mph 23.0 mph N/A   Clear
2:55 PM 44.6 °F 37.8 °F 33.8 °F 66% 29.88 in 10.0 mi SE 15.0 mph 24.2 mph N/A   Clear
3:15 PM 42.8 °F 35.8 °F 33.8 °F 70% 29.87 in 10.0 mi SE 13.8 mph 21.9 mph N/A   Clear
3:35 PM 42.8 °F 35.8 °F 33.8 °F 70% 29.87 in 10.0 mi SSE 13.8 mph 24.2 mph N/A   Clear
3:55 PM 42.8 °F 37.0 °F 33.8 °F 70% 29.87 in 10.0 mi SSE 10.4 mph 20.7 mph N/A   Clear
4:15 PM 42.8 °F 35.4 °F 33.8 °F 70% 29.85 in 10.0 mi SSE 15.0 mph 24.2 mph N/A   Clear
4:35 PM 42.8 °F 35.4 °F 32.0 °F 66% 29.85 in 10.0 mi SSE 15.0 mph 20.7 mph N/A   Clear
4:55 PM 42.8 °F 35.8 °F 32.0 °F 66% 29.85 in 10.0 mi SSE 13.8 mph 24.2 mph N/A   Clear
5:15 PM 41.0 °F 34.7 °F 32.0 °F 70% 29.85 in 10.0 mi SE 10.4 mph 18.4 mph N/A   Clear
5:35 PM 39.2 °F 34.2 °F 32.0 °F 75% 29.85 in 10.0 mi Variable 6.9 mph 15.0 mph N/A   Clear
5:55 PM 39.2 °F 34.2 °F 32.0 °F 75% 29.85 in 10.0 mi SE 6.9 mph - N/A   Clear
6:15 PM 39.2 °F 35.0 °F 32.0 °F 75% 29.85 in 10.0 mi SSE 5.8 mph 12.7 mph N/A   Clear
6:35 PM 39.2 °F 33.6 °F 32.0 °F 75% 29.85 in 10.0 mi SE 8.1 mph 16.1 mph N/A   Mostly Cloudy
6:55 PM 37.4 °F 29.8 °F 32.0 °F 81% 29.84 in 10.0 mi SE 11.5 mph 17.3 mph N/A   Scattered Clouds
7:35 PM 37.4 °F 29.8 °F 32.0 °F 81% 29.83 in 10.0 mi SSE 11.5 mph 18.4 mph N/A   Mostly Cloudy
7:55 PM 37.4 °F 29.3 °F 32.0 °F 81% 29.82 in 10.0 mi SSE 12.7 mph 20.7 mph N/A   Scattered Clouds
8:15 PM 37.4 °F 29.3 °F 32.0 °F 81% 29.81 in 10.0 mi SE 12.7 mph - N/A   Mostly Cloudy
8:35 PM 37.4 °F 30.3 °F 32.0 °F 81% 29.81 in 10.0 mi SE 10.4 mph 16.1 mph N/A   Overcast
8:55 PM 39.2 °F 31.6 °F 32.0 °F 75% 29.80 in 10.0 mi SSE 12.7 mph - N/A   Overcast
9:15 PM 39.2 °F 31.2 °F 32.0 °F 75% 29.80 in 8.0 mi SSE 13.8 mph 25.3 mph N/A   Overcast
9:35 PM 37.4 °F 28.2 °F 32.0 °F 81% 29.79 in 5.0 mi SE 16.1 mph 23.0 mph N/A Rain Light Rain
9:55 PM 37.4 °F 28.5 °F 33.8 °F 87% 29.78 in 7.0 mi SE 15.0 mph 24.2 mph N/A Rain Light Rain
10:15 PM 37.4 °F 28.5 °F 33.8 °F 87% 29.77 in 9.0 mi SE 15.0 mph 23.0 mph N/A   Overcast
10:35 PM 37.4 °F 29.3 °F 33.8 °F 87% 29.76 in 10.0 mi SE 12.7 mph 20.7 mph N/A   Overcast
10:55 PM 37.4 °F 30.3 °F 33.8 °F 87% 29.74 in 10.0 mi SE 10.4 mph 21.9 mph N/A   Overcast
11:15 PM 37.4 °F 29.8 °F 33.8 °F 87% 29.73 in 10.0 mi SE 11.5 mph 20.7 mph N/A   Overcast
11:55 PM 37.4 °F 29.8 °F 33.8 °F 87% 29.72 in 10.0 mi SE 11.5 mph - N/A   Overcast